Regional Weather Roundup
Issued by NWS Charleston, SC

Current Version | Previous Version | Graphics & Text | Print | Product List | Glossary On
Versions: 1 2 3 4 5 6 7 8 9 10 11 12 13 14 15 16 17 18 19 20 21 22 23 24 25 26 27 28 29 30 31 32 33 34 35 36 37 38 39 40 41 42 43 44 45 46 47 48 49 50
000 ASUS42 KCHS 271212 RWRCHS REGIONAL WEATHER ROUNDUP NATIONAL WEATHER SERVICE CHARLESTON SC 800 AM EDT THU APR 27 2017 NOTE: "FAIR" INDICATES FEW OR NO CLOUDS BELOW 12,000 FEET WITH NO SIGNIFICANT WEATHER AND/OR OBSTRUCTIONS TO VISIBILITY. NOT ALL STATIONS ARE QUALITY CONTROLLED. USE DATA WITH CAUTION... ESPECIALLY DEWPOINT OBSERVATIONS. SCZ027-030-031-034>040-042>050-271300- ...SOUTHEAST SOUTH CAROLINA... CITY SKY/WX TMP DP RH WIND PRES REMARKS N CHARLESTON MOSUNNY 69 66 90 S6 29.92R 6HR MIN TEMP: 64; 6HR MAX TEMP: 69; WATERFRONT PRK N/A 71 68 90 SW7 29.90R JOHNS ISLAND FAIR 73 68 83 SW7 29.93R PINOPOLIS N/A 66 64 94 VRB3 29.81R MONCKS CORNER FAIR 63 63 100 SW5 29.93R FOG SUMMERVILLE FAIR 63 61 94 CALM 29.93R BEAUFORT MCAS MOSUNNY 69 67 93 CALM 29.92R 6HR MIN TEMP: 64; 6HR MAX TEMP: 71; BEAUFORT ARPT PTSUNNY 70 64 83 CALM 29.92R HILTON HEAD IS MOSUNNY 68 66 94 S6 29.92R WALTERBORO SUNNY 63 61 94 CALM 29.93R ALLENDALE FAIR 64 61 88 CALM 29.92R ...SOUTHERN MIDLANDS AND PEE DEE... CITY SKY/WX TMP DP RH WIND PRES REMARKS GEORGETOWN FAIR 68 66 94 S3 29.93R KINGSTREE FAIR 63 61 94 CALM 29.92R ORANGEBURG SUNNY 63 61 93 SW3 29.92R 6HR MIN TEMP: 59; 6HR MAX TEMP: 63; BARNWELL FAIR 64 63 94 SW3 29.93R AIKEN FAIR 61 59 94 S6 29.94R MANNING FAIR 64 63 94 MISG 29.92R COLUMBIA MOSUNNY 64 60 87 S8 29.90R 6HR MIN TEMP: 61; 6HR MAX TEMP: 67; SUMTER MOSUNNY 64 62 93 SW8 29.90 6HR MIN TEMP: 60; 6HR MAX TEMP: 64; FLORENCE SUNNY 63 63 100 SW7 29.91R 6HR MIN TEMP: 57; 6HR MAX TEMP: 64; MYRTLE BEACH SUNNY 72 66 83 SW7 29.92R N MYRTLE BEACH SUNNY 71 67 87 SW10 29.91R 6HR MIN TEMP: 66; 6HR MAX TEMP: 71; $$ GAZ063-065-086>088-099>101-113>116-118-119-134>141-150-271300- ...SOUTHEAST GEORGIA... CITY SKY/WX TMP DP RH WIND PRES REMARKS SAVANNAH ARPT PTSUNNY 67 61 81 S5 29.92R 6HR MIN TEMP: 63; 6HR MAX TEMP: 70; HUNTER AAF SUNNY 67 67 100 CALM 29.90R 6HR MIN TEMP: 62; 6HR MAX TEMP: 70; FORT STEWART PTSUNNY 64 61 88 S3 29.91R 6HR MIN TEMP: 59; 6HR MAX TEMP: 64; STATESBORO CLOUDY 64 64 100 CALM 29.92R SYLVANIA PTSUNNY N/A N/A N/A CALM 29.93R CLAXTON PTSUNNY N/A N/A N/A CALM 29.92R ...CSRA...CENTRAL AND FAR SOUTHEAST GEORGIA... CITY SKY/WX TMP DP RH WIND PRES REMARKS THOMSON CLOUDY 61 57 85 SW6 29.93S AUGUSTA-BUSH SUNNY 64 61 90 CALM 29.90R 6HR MIN TEMP: 56; 6HR MAX TEMP: 68; AUGUSTA-DANIEL MOSUNNY 65 57 75 S7 29.91R SWAINSBORO CLOUDY 63 59 88 S5 29.92R VIDALIA CLOUDY 64 59 82 S5 29.91R EASTMAN CLOUDY 66 60 81 SE5 29.91S HAZLEHURST CLOUDY 67 62 84 S3 29.90R ALMA CLOUDY 66 59 78 S6 29.91R HAZE 6HR MIN TEMP: 57; 6HR MAX TEMP: 66; WAYCROSS SUNNY 69 63 81 S5 29.91R JESUP CLOUDY 63 59 88 CALM 29.93R BAXLEY CLOUDY 66 64 94 S3 29.91R BRUNSWICK PTSUNNY 70 66 88 S5 29.93R SAINT SIMONS PTSUNNY 73 66 78 S9 29.92R 6HR MIN TEMP: 67; 6HR MAX TEMP: 73; $$ SCZ027-028-034-036>038-045-046-048>050-GAZ119-141-271300- ...LAKE AND SUPPLEMENTAL COASTAL OBSERVATIONS... STATION/POSITION TIME TEMP WIND PRES WAVE SWELL AIR SEA DIR/SP/G HT/PER HT/PER/DIR (UTC) (F) (DEG/KT/KT) (MB) (FT/S) (FT/S/D) WINYAH BAY 1045 67 210/ 1 1012.0 LAKE MURRAY NOT AVBL ACE BASIN NERRS NOT AVBL FORT PULASKI 1148 70 74 180/ 3/ 5 1013.4R SAPELO ISLAND 1100 67 170/ 3 1012.0 $$ ANZ835-935-AMZ111-154-330-350-352-354-370-450-454-472-271300- ...C-MAN AND BUOY OBSERVATIONS... STATION/POSITION TIME TEMP WIND PRES WAVE SWELL AIR SEA DIR/SP/G HT/PER HT/PER/DIR (UTC) (F) (DEG/KT/KT) (MB) (FT/S) (FT/S/D) BUOY 41004 1150 73 72 210/ 8/ 10 1012.9R 4/ 8 3/140/ 8 BUOY 41008 1050 72 72 180/ 12/ 14 1011.8 4/ 5 3/170/ 5 FOLLY BEACH CMAN NOT AVBL CAPERS NEARSHORE 1108 74 72 210/ 10/ 16 1012.1R FRIPP NEARSHORE 1108 71 71 200/ 10/ 14 1011.9R STATION/POSITION TIME TEMP WIND PRES WAVE SWELL AIR SEA DIR/SP/G HT/PER HT/PER/DIR (UTC) (F) (DEG/KT/KT) (MB) (FT/S) (FT/S/D) 5E ST. MARYS GA 1130 73 N/A 3/ 5 FRYING PAN BUOY 1150 73 73 220/ 10/ 12 1013.3R 4/ 9 3/120/ 9 BUOY 41025 1150 76 77 230/ 12/ 14 1014.0R 6/ 9 5/130/ 9 CAPE LOOKOUT NC NOT AVBL BUOY 41002 1050 74 74 170/ 14/ 16 1015.5 5/ 8 5/120/ 8 BUOY 41010 1150 76 78 160/ 16/ 19 1014.5R 4/ 8 3/130/ 8 ST AUGUSTINE FL 1200 69 74 200/ 8/ 9 1014.5R $$

USA.gov is the U.S. government's official web portal to all federal, state and local government web resources and services.